Regional Weather Roundup
Issued by NWS Goodland, KS

Home | Current Version | Previous Version | Text Only | Print | Product List | Glossary Off
Versions: 1 2 3 4 5 6 7 8 9 10 11 12 13 14 15 16 17 18 19 20 21 22 23 24 25 26 27 28 29 30 31 32 33 34 35 36 37 38 39 40 41 42 43 44 45 46 47 48 49 50

000
ASUS43 KGLD 091659
RWRGLD

GOODLAND FORECAST AREA HOURLY WEATHER ROUNDUP
NATIONAL WEATHER SERVICE GOODLAND KS
1000 AM MST TUE FEB 09 2016

...OFFICIAL OBSERVATIONS...

CITY           SKY/WX    TMP DP  RH WIND       PRES   REMARKS
GOODLAND KS    SUNNY     38  26  62 N10       30.29R
HILL CITY KS   CLOUDY    36  21  54 N9        30.32R
IMPERIAL NEB   SUNNY     35  23  61 SW5       30.27S
MCCOOK NEB     CLOUDY    32  20  61 W6        30.29R
AKRON CO       SUNNY     38  24  57 W15       30.28S
BURLINGTON CO  SUNNY     40  25  55 NW14      30.29R
LIMON CO       SUNNY     32  22  66 NW8       30.33S
$$

...UNOFFICIAL OBSERVATIONS...

CITY           SKY/WX    TMP DP  RH WIND       PRES   REMARKS
COLBY KS       SUNNY     36  27  69 NW7       30.31R
LENORA KS        N/A     33  32  96 MISG        N/A
NORTON KS      CLOUDY    34  18  51 NW9       30.29R
$$



USA.gov is the U.S. government's official web portal to all federal, state and local government web resources and services.